DW6891 Weather Reports


time (UTC)temp
F
wind
direction
speed
knots
gust
knots
rain 1hr
in
rain 24hr
in
rain mn
in
humidity
%
barometer
mb
20260505092959 50 231 0.0 0.0 0.00 0.00 0.00 92 1012.8
20260505092458 50 231 0.0 0.0 0.00 0.00 0.00 92 1012.8
20260505091957 50 231 0.0 0.0 0.00 0.00 0.00 92 1012.8
20260505091500 50 231 0.0 0.0 0.00 0.00 0.00 91 1012.7
20260505090957 50 231 0.0 0.0 0.00 0.00 0.00 91 1012.7
20260505090459 50 231 0.0 0.0 0.00 0.00 0.00 91 1012.6
20260505085457 50 231 0.0 0.0 0.00 0.00 0.00 91 1012.6
20260505084958 50 231 0.0 0.0 0.00 0.00 0.00 91 1012.6
20260505084458 50 231 0.0 0.0 0.00 0.00 0.00 90 1012.6
20260505083958 51 231 0.0 0.0 0.00 0.00 0.00 90 1012.6
20260505083458 51 231 0.0 0.0 0.00 0.00 0.00 90 1012.5
20260505082957 51 231 0.0 0.0 0.00 0.00 0.00 90 1012.5
20260505082459 51 231 0.0 0.0 0.00 0.00 0.00 90 1012.5
20260505081957 51 231 0.0 0.0 0.00 0.00 0.00 90 1012.6
20260505081459 51 231 0.0 0.0 0.00 0.00 0.00 89 1012.5
20260505080957 51 231 0.0 0.0 0.00 0.00 0.00 89 1012.5
20260505080457 51 231 0.0 0.0 0.00 0.00 0.00 89 1012.5
20260505080000 52 231 0.0 0.0 0.00 0.00 0.00 89 1012.4
20260505074959 52 231 0.0 0.0 0.00 0.00 0.00 89 1012.4
20260505073959 52 231 0.0 1.7 0.00 0.00 0.00 88 1012.3
20260505073459 52 231 0.0 1.7 0.00 0.00 0.00 88 1012.2
20260505073000 52 218 0.0 0.0 0.00 0.00 0.00 88 1012.2
20260505072459 52 218 0.0 0.0 0.00 0.00 0.00 88 1012.1
20260505071958 52 218 0.0 0.0 0.00 0.00 0.00 87 1012.1
20260505071459 53 218 0.0 0.0 0.00 0.00 0.00 87 1012.0
20260505070959 53 218 0.0 0.9 0.00 0.00 0.00 87 1012.0
20260505065959 53 218 0.0 0.0 0.00 0.00 0.00 86 1011.9
20260505065458 54 218 0.0 0.9 0.00 0.00 0.00 85 1011.8
20260505064959 54 218 0.0 0.9 0.00 0.00 0.00 85 1011.7
20260505064500 54 218 0.0 0.9 0.00 0.00 0.00 85 1011.6
20260505063500 54 244 0.0 1.7 0.00 0.00 0.00 84 1011.6
20260505062958 54 244 0.0 1.7 0.00 0.00 0.00 84 1011.5
20260505061959 55 244 0.0 0.9 0.00 0.00 0.00 83 1011.5
20260505060500 56 281 0.0 1.7 0.00 0.00 0.00 81 1011.4
20260505060000 56 284 0.0 1.7 0.00 0.00 0.00 81 1011.3
20260505055458 56 240 0.0 0.9 0.00 0.00 0.00 80 1011.3
20260505054957 57 240 0.0 0.9 0.00 0.00 0.00 80 1011.2
20260505054459 57 240 0.0 0.9 0.00 0.00 0.00 79 1011.2
20260505053958 57 240 0.0 1.7 0.00 0.00 0.00 79 1011.1
20260505053459 58 247 0.9 1.7 0.00 0.00 0.00 78 1011.1
20260505052459 58 250 0.0 1.7 0.00 0.00 0.00 77 1011.0
20260505051958 58 235 0.9 1.7 0.00 0.00 0.00 77 1010.9
20260505051500 59 264 0.0 1.7 0.00 0.00 0.00 76 1010.9
20260505050958 59 245 1.7 2.6 0.00 0.00 0.00 76 1010.7
20260505050459 59 231 0.0 2.6 0.00 0.00 0.00 75 1010.7
20260505041458 62 227 0.0 0.9 0.00 0.00 0.00 70 1010.2
20260505040958 62 227 0.0 2.6 0.00 0.00 0.00 69 1010.2
20260505040502 63 265 0.9 2.6 0.00 0.00 0.00 69 1010.0
20260505040001 63 283 1.7 2.6 0.00 0.00 0.00 68 1010.0
20260505035500 63 219 0.9 2.6 0.00 0.00 0.00 68 1010.0
20260505034958 64 234 0.9 2.6 0.00 0.00 0.00 67 1009.9
20260505034000 65 255 0.9 5.2 0.00 0.00 0.00 65 1009.7
20260505033459 65 209 1.7 5.2 0.00 0.00 0.00 65 1009.6
20260505032959 66 263 1.7 4.3 0.00 0.00 0.00 64 1009.5
20260505032459 66 254 0.9 5.2 0.00 0.00 0.00 63 1009.5
20260505031958 67 274 0.9 6.1 0.00 0.00 0.00 62 1009.4
20260505031459 67 276 0.0 6.1 0.00 0.00 0.00 61 1009.4
20260505030958 68 240 0.0 4.3 0.00 0.00 0.00 61 1009.3
20260505030459 68 258 0.9 6.1 0.00 0.00 0.00 60 1009.2
20260505025959 69 266 0.9 5.2 0.00 0.00 0.00 59 1009.1
20260505025459 70 231 1.7 5.2 0.00 0.00 0.00 58 1009.1
20260505024958 70 237 1.7 5.2 0.00 0.00 0.00 57 1009.0
20260505024458 71 286 2.6 5.2 0.00 0.00 0.00 56 1008.9
20260505023957 72 286 0.9 5.2 0.00 0.00 0.00 56 1008.9
20260505023458 72 250 0.9 4.3 0.00 0.00 0.00 55 1008.9
20260505022957 73 257 0.9 3.5 0.00 0.00 0.00 55 1008.9
20260505022500 73 250 0.0 3.5 0.00 0.00 0.00 55 1008.8
20260505021957 74 229 1.7 3.5 0.00 0.00 0.00 54 1008.8
20260505021500 74 246 2.6 3.5 0.00 0.00 0.00 53 1008.8
20260505020500 75 245 0.9 5.2 0.00 0.00 0.00 51 1008.8
20260505015959 76 283 1.7 5.2 0.00 0.00 0.00 50 1008.8
20260505015458 76 296 3.5 4.3 0.00 0.00 0.00 50 1008.8
20260505014958 77 278 0.0 6.1 0.00 0.00 0.00 49 1008.7
20260505014500 77 247 1.7 6.1 0.00 0.00 0.00 47 1008.7
20260505013459 78 296 0.9 4.3 0.00 0.00 0.00 47 1008.7
20260505012959 78 236 2.6 4.3 0.00 0.00 0.00 47 1008.8
20260505011958 79 198 0.9 4.3 0.00 0.00 0.00 44 1008.8
20260505011500 80 319 2.6 4.3 0.00 0.00 0.00 44 1008.8
20260505010959 80 295 0.0 5.2 0.00 0.00 0.00 45 1008.8
20260505005958 80 282 0.9 6.1 0.00 0.00 0.00 44 1008.9
20260505005458 80 278 1.7 6.1 0.00 0.00 0.00 43 1008.9
20260505004959 81 304 1.7 5.2 0.00 0.00 0.00 43 1009.0
20260505004458 80 273 0.9 6.1 0.00 0.00 0.00 43 1008.9
20260505003959 80 337 1.7 6.1 0.00 0.00 0.00 44 1008.9
20260505003457 81 247 2.6 7.0 0.00 0.00 0.00 44 1008.9
20260505002458 82 274 0.9 5.2 0.00 0.00 0.00 37 1008.8
20260505002000 83 263 1.7 5.2 0.00 0.00 0.00 41 1008.8
20260505001459 83 283 0.9 6.1 0.00 0.00 0.00 39 1008.8
20260505000959 83 307 2.6 5.2 0.00 0.00 0.00 40 1008.8
20260505000000 83 1 1.7 6.1 0.00 0.00 0.00 39 1008.8
20260504235000 83 18 3.5 8.7 0.00 0.00 0.00 38 1008.8
20260504234457 84 338 2.6 3.5 0.00 0.00 0.00 38 1008.8
20260504233959 84 191 0.9 3.5 0.00 0.00 0.00 36 1008.8
20260504233458 84 360 1.7 3.5 0.00 0.00 0.00 39 1008.9
20260504232958 84 274 0.0 4.3 0.00 0.00 0.00 40 1008.8
20260504231959 84 275 0.9 7.0 0.00 0.00 0.00 36 1008.9
20260504231500 83 319 0.9 7.0 0.00 0.00 0.00 39 1008.9
20260504230459 82 52 0.9 4.3 0.00 0.00 0.00 41 1009.1
20260504225958 82 270 1.7 6.1 0.00 0.00 0.00 40 1009.1
20260504224958 81 248 2.6 5.2 0.00 0.00 0.00 42 1009.3
20260504224458 81 221 1.7 5.2 0.00 0.00 0.00 42 1009.4
20260504223958 81 45 0.9 6.1 0.00 0.00 0.00 41 1009.4
20260504223459 82 349 1.7 6.1 0.00 0.00 0.00 41 1009.4
20260504222958 82 349 4.3 4.3 0.00 0.00 0.00 42 1009.4
20260504222459 81 338 1.7 5.2 0.00 0.00 0.00 41 1009.4
20260504221958 80 324 2.6 5.2 0.00 0.00 0.00 44 1009.5
20260504221459 81 257 5.2 5.2 0.00 0.00 0.00 42 1009.6
20260504220958 81 309 1.7 4.3 0.00 0.00 0.00 42 1009.6
20260504220459 81 232 0.9 5.2 0.00 0.00 0.00 40 1009.6
20260504215459 83 210 0.9 6.1 0.00 0.00 0.00 40 1009.6
20260504215001 83 295 1.7 6.1 0.00 0.00 0.00 40 1009.7
20260504213959 82 289 2.6 5.2 0.00 0.00 0.00 41 1009.8
20260504212458 81 326 1.7 5.2 0.00 0.00 0.00 42 1009.8
20260504211959 82 283 2.6 4.3 0.00 0.00 0.00 40 1009.9
20260504211459 82 288 0.9 6.1 0.00 0.00 0.00 41 1009.9
20260504211000 82 263 2.6 6.1 0.00 0.00 0.00 39 1009.8
20260504210459 81 304 2.6 5.2 0.00 0.00 0.00 39 1009.8
20260504210001 81 233 3.5 569.2 1.95 0.00 0.00 36
20260504204958 80 344 0.9 5.2 0.00 0.00 0.00 41 1010.0
20260504204458 80 305 2.6 5.2 0.00 0.00 0.00 38 1010.0
20260504203959 80 344 2.6 5.2 0.00 0.00 0.00 38 1010.0
20260504203458 79 294 1.7 4.3 0.00 0.00 0.00 40 1010.0
20260504202958 80 284 0.9 3.5 0.00 0.00 0.00 38 1010.0
20260504202459 79 248 2.6 3.5 0.00 0.00 0.00 39 1010.0
20260504201958 78 306 1.7 5.2 0.00 0.00 0.00 40 1010.0
20260504201458 80 260 5.2 5.2 0.00 0.00 0.00 39 1010.0
20260504200958 80 323 4.3 4.3 0.00 0.00 0.00 39 1010.1
20260504200500 79 311 1.7 3.5 0.00 0.00 0.00 40 1010.1
20260504195957 79 278 0.9 3.5 0.00 0.00 0.00 42 1010.1
20260504194457 79 291 0.9 6.1 0.00 0.00 0.00 42 1010.2
20260504193958 79 311 0.9 6.1 0.00 0.00 0.00 44 1010.2
20260504193459 78 360 1.7 5.2 0.00 0.00 0.00 44 1010.3
20260504193000 77 110 0.9 3.5 0.00 0.00 0.00 44 1010.3
20260504192458 76 271 0.9 4.3 0.00 0.00 0.00 45 1010.3
20260504191958 77 220 1.7 5.2 0.00 0.00 0.00 42 1010.4
20260504191459 77 283 0.9 5.2 0.00 0.00 0.00 44 1010.4
20260504190959 76 302 1.7 3.5 0.00 0.00 0.00 48 1010.5
20260504190459 76 232 2.6 5.2 0.00 0.00 0.00 44 1010.5
20260504185959 76 276 2.6 5.2 0.00 0.00 0.00 45 1010.4
20260504185458 77 207 0.9 3.5 0.00 0.00 0.00 47 1010.5
20260504184500 76 260 0.9 2.6 0.00 0.00 0.00 49 1010.6
20260504183500 74 154 1.7 4.3 0.00 0.00 0.00 52 1010.7
20260504182958 74 268 2.6 4.3 0.00 0.00 0.00 49 1010.7
20260504181959 74 274 1.7 4.3 0.00 0.00 0.00 50 1010.9
20260504181459 74 360 0.9 4.3 0.00 0.00 0.00 49 1010.9
20260504181001 73 226 0.9 4.3 0.00 0.00 0.00 52 1010.8
20260504180501 74 279 2.6 4.3 0.00 0.00 0.00 49 1010.7
20260504180001 74 262 0.0 2.6 0.00 0.00 0.00 51 1010.7
20260504175458 74 295 0.9 2.6 0.00 0.00 0.00 48 1010.7
20260504174958 73 195 1.7 2.6 0.00 0.00 0.00 52 1010.7
20260504174458 73 103 0.9 2.6 0.00 0.00 0.00 50 1010.7
20260504173958 73 220 0.0 2.6 0.00 0.00 0.00 56 1010.7
20260504173502 72 274 0.9 1.7 0.00 0.00 0.00 55 1010.7
20260504172957 71 215 0.9 1.7 0.00 0.00 0.00 55 1010.7
20260504172457 70 244 0.9 2.6 0.00 0.00 0.00 55 1010.7
20260504171459 70 250 1.7 3.5 0.00 0.00 0.00 57 1010.7
20260504170958 70 253 0.9 2.6 0.00 0.00 0.00 55 1010.7
20260504170500 70 237 1.7 2.6 0.00 0.00 0.00 55 1010.7
20260504150958 58 359 0.0 0.0 0.00 0.00 0.00 87 1010.1
20260504150459 57 359 0.0 0.0 0.00 0.00 0.00 90 1010.0
20260504140957 50 359 0.0 0.0 0.00 0.00 0.00 93 1009.7
20260504140459 49 359 0.0 0.0 0.00 0.00 0.00 93 1009.6
20260504130458 49 359 0.0 0.0 0.00 0.00 0.00 92 1009.0
20260504110458 51 359 0.0 0.0 0.00 0.00 0.00 91 1008.9